Location: Fornova de Taro
(44.7000°N, 10.1000°E)
Time: 05:27:19
(UTC+00:00)

Cosmos 292 Rocket - Pass Details

Date: 02 October 2022
Orbit: 673 x 692 km, 74.0° (Epoch: 27 November)

Event Time Altitude Azimuth Distance (km) Brightness Sun altitude
Exits shadow 02:27:19 12° 344° (NNW) 2,052 6.3 -30.2°
Drops below altitude 10° 02:27:45 10° 349° (NNW) 2,155 6.5 -30.2°
Sets 02:30:50 0° 9° (N) 3,074 7.6 -29.7°
